Patuxent River, MD

5:11 PM EST on January 23, 2018 (GMT -0500)
Patuxent River Naval Air Station

Weather History for KNHK - February, 2014

Change the Weather History Date:

Thursday, February 13, 2014

  Actual Average Record
Temperature  
Mean Temperature 33 °F -  
Max Temperature 36 °F 39 °F 46 °F (2017)
Min Temperature 30 °F 26 °F 14 °F (2015)
Degree Days  
Heating Degree Days 32    
Moisture  
Dew Point 31 °F    
Average Humidity 90    
Maximum Humidity 93    
Minimum Humidity 85    
Precipitation  
Precipitation 1.47 in - - ()
Snow  
Snow 0.00 in - - ()
Snow Depth 1.00 in    
Sea Level Pressure  
Sea Level Pressure 29.55 in    
Wind  
Wind Speed 19 mph (North)    
Max Wind Speed 30 mph    
Max Gust Speed 39 mph    
Visibility 4 miles    
Events Rain , Snow , Thunderstorm    
Averages and records for this station are not official NWS values.
T = Trace of Precipitation, MM = Missing Value Source: NWS Daily Summary

Daily Weather History Graph

Daily Weather History Graph

Search for Another Location

Airport or City:

Trip Planner

Search our weather history database for the weather conditions in past years. The results will help you decide how hot, cold, wet, or windy it might be!

Date:

Astronomy

Feb. 13, 2014 Rise Set
Actual Time 6:58 AM EST 5:41 PM EST
Civil Twilight 6:31 AM EST 6:09 PM EST
Nautical Twilight 6:00 AM EST 6:40 PM EST
Astronomical Twilight 5:29 AM EST 7:10 PM EST
Moon 4:48 PM EST (2/13) 5:50 AM EST (2/13)
Length of Visible Light 11h 37m
Length of Day
10h 43m
Waxing Gibbous, 98% of the Moon is Illuminated
Feb 13
Waxing Gibbous
Feb 14
Full
Feb 22
Last Quarter
Mar 1
New
Mar 8
First Quarter

Hourly Weather History & Observations

Time (EST) Temp. Windchill Dew Point Humidity Pressure Visibility Wind Dir Wind Speed Gust Speed Precip Events Conditions
12:01 AM 30.0 °F 18.3 °F 28.0 °F 92% 30.06 in 3.0 mi NNE 17.3 mph 25.3 mph 0.02 in Snow Light Snow
12:09 AM 30.0 °F 17.9 °F 28.0 °F 92% 30.06 in 3.0 mi NNE 18.4 mph 28.8 mph 0.02 in Snow Light Snow
12:16 AM 30.0 °F 18.3 °F 28.0 °F 92% 30.05 in 2.5 mi NNE 17.3 mph 28.8 mph 0.03 in Snow Light Snow
12:34 AM 30.9 °F 19.1 °F 28.0 °F 89% 30.02 in 3.0 mi NNE 18.4 mph 26.5 mph 0.05 in Snow Light Snow
12:52 AM 30.9 °F 19.1 °F 28.9 °F 92% 30.01 in 5.0 mi NNE 18.4 mph - 0.08 in Snow Light Snow
12:59 AM 30.9 °F 19.1 °F 28.9 °F 92% 30.00 in 5.0 mi NNE 18.4 mph - 0.01 in Snow Light Snow
1:18 AM 32.0 °F 19.5 °F 28.9 °F 88% 29.98 in 6.0 mi NNE 21.9 mph 26.5 mph 0.03 in Rain Light Freezing Rain
1:31 AM 32.0 °F 19.2 °F 28.9 °F 88% 29.97 in 5.0 mi NNE 23.0 mph 28.8 mph 0.05 in Rain Light Freezing Rain
1:52 AM 32.0 °F 20.5 °F 28.9 °F 88% 29.95 in 4.0 mi NNE 18.4 mph - 0.09 in Rain Light Freezing Rain
2:49 AM 32.0 °F 20.1 °F 30.2 °F 93% 29.88 in 3.0 mi NNE 19.6 mph 27.6 mph 0.12 in Rain Light Freezing Rain
2:52 AM 32.0 °F 20.5 °F 30.0 °F 92% 29.88 in 3.0 mi NNE 18.4 mph 27.6 mph 0.13 in Rain Light Freezing Rain
3:15 AM 33.1 °F 21.2 °F 30.0 °F 89% 29.85 in 3.0 mi NNE 20.7 mph 29.9 mph 0.10 in   Overcast
3:23 AM 33.1 °F 20.6 °F 30.9 °F 92% 29.83 in 2.5 mi NNE 23.0 mph 31.1 mph 0.13 in Rain Rain
3:38 AM 33.1 °F 20.9 °F 30.9 °F 92% 29.81 in 4.0 mi NNE 21.9 mph 31.1 mph 0.16 in Rain Light Rain
3:52 AM 34.0 °F 21.8 °F 30.9 °F 89% 29.78 in 5.0 mi NNE 23.0 mph 33.4 mph 0.18 in Rain Light Rain
4:15 AM 34.0 °F 21.0 °F 32.0 °F 92% 29.74 in 4.0 mi NNE 26.5 mph 39.1 mph 0.04 in Rain Rain
4:32 AM 34.0 °F 21.3 °F 32.0 °F 92% 29.73 in 5.0 mi NNE 25.3 mph 36.8 mph 0.06 in Rain Light Rain
4:52 AM 34.0 °F 20.3 °F 32.0 °F 92% 29.71 in 7.0 mi NNE 29.9 mph 36.8 mph 0.08 in Rain Rain
5:35 AM 34.0 °F 20.8 °F 32.0 °F 92% 29.65 in 2.5 mi NNE 27.6 mph 34.5 mph 0.15 in Rain Heavy Rain
5:43 AM 35.1 °F 22.0 °F 32.0 °F 89% 29.65 in 3.0 mi NNE 28.8 mph 36.8 mph 0.18 in Rain Rain
5:52 AM 34.0 °F 21.3 °F 32.0 °F 92% 29.66 in 3.0 mi NNE 25.3 mph 36.8 mph 0.21 in Rain Rain
6:11 AM 35.1 °F 23.8 °F 32.0 °F 89% 29.66 in 2.5 mi NNE 20.7 mph 29.9 mph 0.05 in Rain Rain
6:48 AM 35.6 °F 25.5 °F 33.8 °F 93% 29.65 in 3.0 mi North 17.3 mph - 0.14 in Rain Light Rain
6:52 AM 35.1 °F 25.2 °F 32.0 °F 89% 29.65 in 3.0 mi North 16.1 mph - 0.14 in Rain Light Rain
7:52 AM 35.1 °F 25.2 °F 32.0 °F 89% 29.62 in 4.0 mi North 16.1 mph 28.8 mph 0.03 in   Light Drizzle
7:55 AM 35.1 °F 25.2 °F 32.0 °F 89% 29.62 in 3.0 mi North 16.1 mph 27.6 mph 0.01 in   Light Drizzle
8:52 AM 35.1 °F 24.8 °F 32.0 °F 89% 29.57 in 3.0 mi North 17.3 mph - 0.01 in   Light Drizzle
8:58 AM 35.1 °F 24.1 °F 32.0 °F 89% 29.57 in 4.0 mi North 19.6 mph 25.3 mph 0.00 in   Light Drizzle
9:52 AM 35.1 °F 24.1 °F 32.0 °F 89% 29.52 in 4.0 mi North 19.6 mph 29.9 mph 0.01 in   Light Drizzle
10:52 AM 35.1 °F 25.5 °F 33.1 °F 92% 29.48 in 4.0 mi North 15.0 mph 26.5 mph 0.00 in   Light Drizzle
11:52 AM 36.0 °F 26.3 °F 33.1 °F 89% 29.44 in 4.0 mi North 16.1 mph 25.3 mph 0.00 in   Light Drizzle
12:26 PM 36.0 °F 26.3 °F 33.1 °F 89% 29.41 in 2.5 mi North 16.1 mph - 0.00 in   Light Drizzle
12:52 PM 36.0 °F 26.0 °F 34.0 °F 93% 29.38 in 2.5 mi North 17.3 mph - 0.00 in   Light Drizzle
1:46 PM 35.6 °F 26.2 °F 33.8 °F 93% 29.33 in 3.0 mi North 15.0 mph - 0.00 in   Light Drizzle
1:52 PM 36.0 °F 25.6 °F 33.1 °F 89% 29.33 in 3.0 mi North 18.4 mph 23.0 mph 0.00 in   Light Drizzle
2:52 PM 35.1 °F 24.8 °F 33.1 °F 92% 29.30 in 3.0 mi NNW 17.3 mph - 0.00 in   Light Drizzle
3:52 PM 35.1 °F 24.5 °F 33.1 °F 92% 29.25 in 3.0 mi North 18.4 mph 27.6 mph 0.00 in   Light Drizzle
4:14 PM 35.1 °F 28.6 °F 33.1 °F 92% 29.30 in 3.0 mi WNW 8.1 mph - 0.03 in Rain Light Rain
4:16 PM 35.1 °F 27.9 °F 33.1 °F 92% 29.31 in 3.0 mi West 9.2 mph - 0.04 in Rain , Thunderstorm Light Thunderstorms and Rain
4:25 PM 35.1 °F 26.9 °F 32.0 °F 89% 29.29 in 3.0 mi NW 11.5 mph - 0.09 in Rain , Thunderstorm Light Thunderstorms and Rain
4:52 PM 34.0 °F 24.2 °F 32.0 °F 92% 29.27 in 3.0 mi NNW 15.0 mph 23.0 mph 0.18 in Rain Light Rain
5:23 PM 35.1 °F 23.8 °F 32.0 °F 89% 29.24 in 10.0 mi North 20.7 mph 27.6 mph 0.00 in Rain Light Rain
5:52 PM 35.1 °F 26.9 °F 32.0 °F 89% 29.27 in 10.0 mi WNW 11.5 mph - 0.00 in Rain Light Rain
6:18 PM 34.0 °F 24.6 °F 30.9 °F 89% 29.27 in 3.0 mi WNW 13.8 mph - 0.04 in Snow Light Snow
6:39 PM 33.1 °F 23.0 °F 30.0 °F 89% 29.27 in 1.0 mi NW 15.0 mph - 0.09 in Snow Light Snow
6:52 PM 32.0 °F 22.1 °F 30.0 °F 92% 29.27 in 1.0 mi NW 13.8 mph - 0.13 in Snow Light Snow
7:52 PM 33.1 °F 23.0 °F 30.9 °F 92% 29.27 in 1.5 mi WNW 15.0 mph - 0.09 in Snow Light Snow
7:55 PM 33.1 °F 22.6 °F 30.0 °F 89% 29.27 in 1.5 mi WNW 16.1 mph 21.9 mph 0.00 in Snow Light Snow
8:22 PM 33.1 °F 23.4 °F 30.0 °F 89% 29.27 in 3.0 mi WNW 13.8 mph - 0.01 in Snow Light Snow
8:52 PM 33.1 °F 22.2 °F 30.0 °F 89% 29.28 in 1.8 mi WNW 17.3 mph - 0.02 in Snow Light Snow
9:36 PM 33.1 °F 22.6 °F 30.0 °F 89% 29.30 in 0.8 mi WNW 16.1 mph - 0.02 in Snow Light Snow
9:52 PM 33.1 °F 22.6 °F 30.0 °F 89% 29.31 in 0.5 mi WNW 16.1 mph 24.2 mph 0.05 in Snow Snow
10:18 PM 33.1 °F 21.9 °F 30.9 °F 92% 29.31 in 2.0 mi WNW 18.4 mph 27.6 mph 0.02 in Snow Light Snow
10:41 PM 33.1 °F 22.2 °F 30.9 °F 92% 29.33 in 3.0 mi WNW 17.3 mph 24.2 mph 0.03 in Snow Light Snow
10:52 PM 34.0 °F 23.4 °F 30.9 °F 89% 29.34 in 3.0 mi WNW 17.3 mph 24.2 mph 0.04 in Snow Light Snow
11:00 PM 34.0 °F 22.7 °F 30.9 °F 89% 29.34 in 6.0 mi West 19.6 mph 27.6 mph 0.00 in Snow Light Snow
11:11 PM 34.0 °F 22.7 °F 30.9 °F 89% 29.35 in 9.0 mi WNW 19.6 mph - 0.00 in   Overcast
11:36 PM 35.1 °F 24.5 °F 30.9 °F 85% 29.35 in 10.0 mi WNW 18.4 mph 26.5 mph 0.00 in   Overcast
11:52 PM 35.1 °F 25.2 °F 30.9 °F 85% 29.36 in 10.0 mi West 16.1 mph 25.3 mph 0.00 in   Overcast